Погода в Чиангмае

Таиланд     18°47′24″N   98°59′44″E
темп.,
°C
ветер,
м/с
пор.,
м/с
влажн.,
%
обл.,
%
осадки,
мм/ч
давл.,
гПа
погр.,
м
8 августа, пн
пн801:00+23юв1299100 14.3 1006170
04:00+22ююв1299100 7.0 1005163
07:00+22ю1198100 8.6 100697
10:00+23ю1297100 1.1 1007191
13:00+24ююз2392100 1.6 1006409
16:00+24ююз1294100 1.7 1005190
19:00+23вюв1197100 3.0 100620
22:00+22ю1198100 1.8 100828
9 августа, вт
вт901:00+22ю1299100 3.6 100792
04:00+22ю1299100 0.4 1006108
07:00+22ю1199100 0.8 100794
10:00+24ююз2292100 0.8 1008382
13:00+27ююз337498 2.2 1005876
16:00+27ююз3372100 0.8 1003919
19:00+23ююз2490100 1.4 1004177
22:00+23юз1294100 0.2 100771
10 августа, ср
ср1001:00+22ююз1196100 0.3 100659
04:00+22ююз0196100 0.1 100545
07:00+22юз0194100 0.1 1006113
10:00+25ю118198 0.1 1007549
13:00+28ююз227354 1.6 10041003
16:00+27ююз228225 3.8 1002696
19:00+24ю129524 8.9 100334
22:00+23юз119691 4.1 100629
11 августа, чт
чт1101:00+22юз119774 4.2 100534
04:00+21ююз009897 0.0 100524
07:00+22всв0096100 0.0 100679
10:00+26ююв0178100 0.0 1006649
13:00+29ю126529 0.4 10041051
16:00+29юз226940 1.2 1001835
19:00+25ю1190100 3.8 100313
22:00+23юз1195100 0.4 100536
12 августа, пт
пт1201:00+23юз1196100 0.5 100562
04:00+22зсз0196100 0.0 100426
07:00+22юз119497 0.0 100683
10:00+27ююз226856 0.0 1006900
13:00+30ю3360100 0.1 10041353
16:00+30зюз1264100 1.3 10011016
19:00+25ююз1189100 4.3 100313
22:00+24юз1194100 1.7 100533